GLOBALSTAR M014 [-]

Last updated on Thu Dec 28 2023 00:02:57 GMT+0000 (Coordinated Universal Time)

1 25306U 98023A 23361.56157382 -.00000064 00000+0 24640-3 0 9999 2 25306 51.9849 82.7210 0001462 110.7378 353.1185 11.65463464128483
UTC large
Height (km)
Speed (km/s)
/
Latitude / Longitude
Inclination (degrees)
Orbital Period (minutes)
Azimuth
Elevation
Range (km)
Doppler Factor

Next 0 passes for location: London (51.5072 / 0.1276)

Sorry there are no passes over London.
GLOBALSTAR M014 [-]